Glens Falls, NY

12:32 PM EST on December 12, 2019 (GMT -0500)
Bennett Memorial

Weather History for KGFL - October, 2019

Change the Weather History Date:

Sunday, October 20, 2019

  Actual Average Record
Temperature  
Mean Temperature 41 °F 45 °F  
Max Temperature 52 °F 57 °F 77 °F (1947)
Min Temperature 29 °F 34 °F 19 °F (1972)
Degree Days  
Heating Degree Days 24 20  
Month to date heating degree days 319 332  
Since 1 July heating degree days 541 617  
Cooling Degree Days 0 0  
Month to date cooling degree days 0 0  
Year to date cooling degree days 416 351  
Moisture  
Dew Point 38 °F    
Average Humidity 80    
Maximum Humidity 100    
Minimum Humidity 59    
Precipitation  
Precipitation 0.08 in 0.11 in 1.59 in (1989)
Month to date precipitation 4.54 2.29  
Year to date precipitation 35.39 31.48  
Sea Level Pressure  
Sea Level Pressure 30.05 in    
Wind  
Wind Speed 2 mph (South)    
Max Wind Speed 9 mph    
Max Gust Speed 11 mph    
Visibility 5 miles    
Events Fog , Rain    
T = Trace of Precipitation, MM = Missing Value Source: NWS Daily Summary

Daily Weather History Graph

Daily Weather History Graph

Search for Another Location

Airport or City:

Astronomy

Oct. 20, 2019 Rise Set
Actual Time 7:14 AM EDT 6:03 PM EDT
Civil Twilight 6:45 AM EDT 6:32 PM EDT
Nautical Twilight 6:11 AM EDT 7:05 PM EDT
Astronomical Twilight 5:38 AM EDT 7:38 PM EDT
Moon 11:02 PM EDT (10/20) 1:46 PM EDT (10/20)
Length of Visible Light 11h 47m
Length of Day
10h 49m
Waning Gibbous, 59% of the Moon is Illuminated
Oct 20
Waning Gibbous
Oct 21
Last Quarter
Oct 27
New
Nov 4
First Quarter
Nov 12
Full

Hourly Weather History & Observations

Time (EDT) Temp. Windchill Dew Point Humidity Pressure Visibility Wind Dir Wind Speed Gust Speed Precip Events Conditions
12:53 AM 34.0 °F - 32.0 °F 92% 30.06 in 6.0 mi Calm Calm - N/A   Clear
1:53 AM 32.0 °F - 30.9 °F 96% 30.07 in 3.0 mi Calm Calm - N/A   Clear
2:53 AM 32.0 °F - 30.0 °F 92% 30.07 in 3.0 mi Calm Calm - N/A   Clear
3:51 AM 30.2 °F - 30.2 °F 100% 30.04 in 3.0 mi Calm Calm - N/A   Clear
3:53 AM 30.9 °F - 28.9 °F 92% 30.06 in 4.0 mi Calm Calm - N/A   Clear
4:26 AM 28.9 °F - 28.0 °F 96% 30.04 in 2.5 mi Calm Calm - N/A   Clear
4:35 AM 30.0 °F - 28.9 °F 96% 30.04 in 6.0 mi Calm Calm - N/A   Clear
4:53 AM 30.0 °F 26.5 °F 28.9 °F 96% 30.06 in 10.0 mi NNW 3.5 mph - N/A   Clear
5:53 AM 30.9 °F - 30.0 °F 96% 30.06 in 10.0 mi Calm Calm - N/A   Clear
6:53 AM 32.0 °F - 30.0 °F 92% 30.06 in 9.0 mi Calm Calm - N/A   Clear
7:20 AM 32.0 °F - 30.9 °F 96% 30.04 in 10.0 mi Calm Calm - N/A   Scattered Clouds
7:29 AM 32.0 °F - 30.0 °F 92% 30.03 in 10.0 mi Calm Calm - N/A   Mostly Cloudy
7:53 AM 33.1 °F 30.0 °F 30.9 °F 92% 30.05 in 10.0 mi ENE 3.5 mph - N/A   Scattered Clouds
8:53 AM 36.0 °F - 35.1 °F 97% 30.08 in 10.0 mi Calm Calm - N/A   Clear
9:53 AM 43.0 °F - 39.0 °F 86% 30.09 in 10.0 mi Calm Calm - N/A   Clear
10:53 AM 46.0 °F 44.8 °F 39.9 °F 79% 30.08 in 10.0 mi South 3.5 mph - N/A   Clear
11:53 AM 50.0 °F - 39.0 °F 66% 30.08 in 10.0 mi Variable 4.6 mph - N/A   Clear
12:53 PM 51.1 °F - 37.9 °F 61% 30.06 in 10.0 mi SW 6.9 mph - N/A   Clear
1:53 PM 52.0 °F - 37.9 °F 59% 30.06 in 10.0 mi SSW 6.9 mph - N/A   Partly Cloudy
2:53 PM 51.1 °F - 39.9 °F 66% 30.05 in 10.0 mi South 5.8 mph - 0.00 in Rain Light Rain
3:53 PM 48.9 °F - 44.1 °F 83% 30.05 in 10.0 mi Calm Calm - 0.00 in Rain Light Rain
4:53 PM 48.9 °F - 44.1 °F 83% 30.05 in 8.0 mi Calm Calm - 0.04 in Rain Light Rain
5:53 PM 48.0 °F - 46.0 °F 93% 30.06 in 7.0 mi West 3.5 mph - 0.04 in Rain Light Rain
6:53 PM 44.1 °F 41.5 °F 43.0 °F 96% 30.06 in 2.0 mi ESE 4.6 mph - 0.00 in   Partly Cloudy
7:00 PM 45.0 °F 40.6 °F 44.1 °F 97% 30.03 in 1.0 mi East 8.1 mph - N/A   Clear
7:14 PM 44.1 °F - 44.1 °F 100% 30.04 in 3.0 mi Calm Calm - N/A   Scattered Clouds
7:53 PM 45.0 °F - 44.1 °F 97% 30.05 in 5.0 mi Calm Calm - N/A   Mostly Cloudy
8:11 PM 45.0 °F - 43.0 °F 93% 30.04 in 1.8 mi Calm Calm - N/A   Overcast
8:21 PM 46.0 °F - 45.0 °F 96% 30.04 in 3.0 mi Calm Calm - N/A   Overcast
8:53 PM 46.0 °F - 45.0 °F 96% 30.06 in 4.0 mi Calm Calm - N/A   Overcast
9:11 PM 45.0 °F - 44.1 °F 97% 30.05 in 2.5 mi Calm Calm - N/A   Mostly Cloudy
9:36 PM 44.1 °F - 44.1 °F 100% 30.05 in 1.0 mi Calm Calm - N/A   Partly Cloudy
9:44 PM 44.1 °F - 43.0 °F 96% 30.04 in 0.5 mi Calm Calm - N/A Fog Fog
9:53 PM 44.1 °F - 43.0 °F 96% 30.06 in 1.0 mi Calm Calm - N/A   Mist
9:59 PM 44.1 °F - 43.0 °F 96% 30.04 in 0.2 mi Calm Calm - N/A Fog Fog
10:19 PM 44.1 °F - 43.0 °F 96% 30.05 in 0.2 mi Calm Calm - N/A Fog Fog
10:36 PM 43.0 °F - 41.0 °F 93% 30.04 in 0.2 mi Calm Calm - N/A Fog Fog
10:48 PM 42.8 °F - 41.0 °F 93% 30.04 in 0.2 mi Calm Calm - N/A Fog Fog
10:53 PM 41.0 °F - 41.0 °F 100% 30.06 in 0.2 mi Calm Calm - N/A Fog Fog
11:53 PM 39.0 °F - 37.9 °F 96% 30.07 in 0.2 mi Calm Calm - N/A Fog Fog